Weather History for K12N - January, 2014

Change the Weather History Date:

Friday, January 3, 2014

  Actual Average (KFWN) Record (KFWN)
Temperature  
Mean Temperature 6 °F -  
Max Temperature 14 °F 36 °F 55 °F (1979)
Min Temperature -4 °F 16 °F -8 °F (1968)
Degree Days  
Heating Degree Days 59    
Moisture  
Dew Point -1 °F    
Average Humidity 65    
Maximum Humidity 88    
Minimum Humidity 44    
Precipitation  
Precipitation 0.23 in - - ()
Sea Level Pressure  
Sea Level Pressure 30.16 in    
Wind  
Wind Speed 8 mph (North)    
Max Wind Speed 12 mph    
Max Gust Speed 24 mph    
Averages and records for this station are not official NWS values.
T = Trace of Precipitation, MM = Missing Value Source: NWS Daily Summary

Daily Weather History Graph

Daily Weather History Graph

Search for Another Location

Airport or City:

Trip Planner

Search our weather history database for the weather conditions in past years. The results will help you decide how hot, cold, wet, or windy it might be!

Date:

Astronomy

Jan. 03, 2014 Rise Set
Actual Time 7:24 AM EST 4:43 PM EST
Civil Twilight 6:53 AM EST 5:14 PM EST
Nautical Twilight 6:18 AM EST 5:48 PM EST
Astronomical Twilight 5:45 AM EST 6:21 PM EST
Moon 8:46 AM EST (1/3) 7:51 PM EST (1/3)
Length of Visible Light 10h 20m
Length of Day
9h 19m
Waxing Crescent, 8% of the Moon is Illuminated
Jan 3
Waxing Crescent
Jan 7
First Quarter
Jan 15
Full
Jan 24
Last Quarter
Jan 30
New

Hourly Weather History & Observations

Time (EST) Temp. Windchill Dew Point Humidity Pressure Visibility Wind Dir Wind Speed Gust Speed Precip Events Conditions
12:54 AM 10.9 °F -3.4 °F 7.0 °F 84% 29.74 in - NNE 11.5 mph 23.0 mph 0.08 in   Unknown
1:54 AM 12.0 °F -2.0 °F 8.1 °F 84% 29.75 in - NNE 11.5 mph 21.9 mph 0.06 in   Unknown
2:54 AM 12.9 °F 2.6 °F 9.0 °F 84% 29.78 in - Variable 6.9 mph 19.6 mph 0.03 in   Unknown
3:54 AM 12.9 °F 0.7 °F 10.0 °F 88% 29.79 in - North 9.2 mph - 0.03 in   Unknown
4:54 AM 12.9 °F -0.2 °F 9.0 °F 84% 29.81 in - North 10.4 mph - 0.02 in   Unknown
5:54 AM 12.0 °F 0.5 °F 6.1 °F 77% 29.86 in - North 8.1 mph - 0.01 in   Unknown
6:54 AM 12.0 °F -0.4 °F 5.0 °F 73% 29.93 in - North 9.2 mph - N/A   Unknown
7:54 AM 12.0 °F -0.4 °F 3.9 °F 70% 29.99 in - North 9.2 mph - N/A   Unknown
8:54 AM 12.0 °F -2.0 °F 3.0 °F 67% 30.05 in - NNW 11.5 mph - N/A   Unknown
9:54 AM 10.0 °F -2.9 °F -0.9 °F 61% 30.11 in - North 9.2 mph 24.2 mph N/A   Unknown
10:54 AM 10.9 °F -0.8 °F -0.9 °F 59% 30.14 in - North 8.1 mph 18.4 mph N/A   Unknown
11:54 AM 12.9 °F 2.6 °F -0.9 °F 54% 30.15 in - Variable 6.9 mph - N/A   Unknown
12:54 PM 14.0 °F 5.1 °F -2.0 °F 49% 30.19 in - Variable 5.8 mph 19.6 mph N/A   Unknown
1:54 PM 12.9 °F 0.7 °F -2.9 °F 49% 30.23 in - NNW 9.2 mph 20.7 mph N/A   Unknown
2:54 PM 12.9 °F -0.9 °F -2.9 °F 49% 30.26 in - North 11.5 mph 20.7 mph N/A   Unknown
3:54 PM 12.0 °F -0.4 °F -6.0 °F 44% 30.30 in - North 9.2 mph 18.4 mph N/A   Unknown
4:54 PM 10.0 °F 0.4 °F -8.0 °F 44% 30.35 in - Variable 5.8 mph - N/A   Unknown
5:54 PM 9.0 °F -3.2 °F -8.0 °F 46% 30.40 in - North 8.1 mph - N/A   Unknown
6:54 PM 7.0 °F - -8.0 °F 51% 30.45 in - Calm Calm - N/A   Unknown
7:54 PM 7.0 °F -4.5 °F -9.0 °F 48% 30.48 in - North 6.9 mph - N/A   Unknown
8:54 PM 3.9 °F - -7.1 °F 60% 30.50 in - Calm Calm - N/A   Unknown
9:54 PM 3.0 °F - -7.1 °F 63% 30.51 in - Calm Calm - N/A   Unknown
10:54 PM -2.0 °F - -7.1 °F 79% 30.51 in - Calm Calm - N/A   Unknown
11:54 PM -4.0 °F - -8.0 °F 83% 30.51 in - Calm Calm - N/A   Unknown